Content
SEND FEEDBACK

Daily
Averages
Monthly
Summary
United States of America

MERIZO, GUAM


Home > North America > United States > Guam
Elevation: 3 meters     Latitude: 13 14N     Longitude: 144 39E

WEATHER
 
SELECT A DAY
Number of Records: 342,637;   Date Range: 1/1/95 - 9/20/14
 
SHARE

PRINT THIS DATA

[ ← Previous Day ]
WEATHER ALMANAC - 3 FEBRUARY, 2013
[ Next Day → ]
[ °F ]   °C
Weather ElementAverageHighLow
Temperature25.7 °C28.4 °C (12:55 pm)24 °C (9:04 am)
Dewpoint21.2 °C22.1 °C (9:55 am)19.8 °C (4:55 am)
Humidity76.6 %89 % (9:04 am)67 % (12:55 pm)
Barometer1014.2 hPa1015.2 hPa (8:53 am)1012.5 hPa (2:55 pm)
Wind Speed29.3 km/h33.3 km/h (12:14 am)
Wind Gust42.6 km/h (1:27 am)
Weather ElementAverage
Visibility15.4 km
Wind DirectionENE (58.4 °)

Weather ElementTotal
Precipitation1.52 mm
Cooling Degree Days7.9 (Base 18.3)
Growing Degree Days16.2 (Base 10)
Averaged from 58 records on 3 February, 2013
WEATHER CONDITIONS BREAKOUT
WIND DIRECTION BREAKOUT
WEATHER BY HOUR - 3 FEBRUARY, 2013
[ °F ]   °C
Local TimeTemperatureDewpointHumidityBarometerVisibilityWind DirectionWind SpeedGust SpeedPrecipitationEventsConditions
12:12 AM25 °C20 °C74 %1014.9 hPa16.1 kmENE (60°)29.6 km/hMostly Cloudy
12:14 AM25 °C20 °C74 %1014.9 hPa16.1 kmENE (60°)33.3 km/hMostly Cloudy
12:19 AM25 °C21 °C78 %1014.9 hPa16.1 kmNE (50°)31.5 km/hMostly Cloudy
12:22 AM25 °C21 °C78 %1014.9 hPa16.1 kmNE (50°)29.6 km/hMostly Cloudy
12:23 AM25 °C21 °C78 %1014.9 hPa16.1 kmNE (50°)27.8 km/hMostly Cloudy
12:55 AM24.5 °C20.2 °C77 %1014.6 hPa16.1 kmENE (60°)29.6 km/hMostly Cloudy
1:27 AM25 °C21 °C78 %1014.2 hPa16.1 kmENE (60°)33.3 km/h42.6 km/hMostly Cloudy
1:34 AM25 °C20 °C74 %1014.2 hPa16.1 kmENE (60°)33.3 km/h42.6 km/hScattered Clouds
1:55 AM24.8 °C20.4 °C76 %1013.9 hPa16.1 kmENE (60°)24.1 km/hScattered Clouds
2:36 AM25 °C20 °C74 %1013.5 hPa16.1 kmNE (50°)29.6 km/hMostly Cloudy
2:43 AM25 °C20 °C74 %1013.5 hPa16.1 kmENE (60°)33.3 km/hMostly Cloudy
2:55 AM24.6 °C20.5 °C78 %1013.2 hPa16.1 kmNE (50°)31.5 km/h42.6 km/hScattered Clouds
3:55 AM24.6 °C20.6 °C78 %1013.2 hPa16.1 kmNE (50°)27.8 km/hScattered Clouds
4:55 AM24.8 °C19.8 °C74 %1013.5 hPa16.1 kmNE (50°)31.5 km/hMostly Cloudy
5:55 AM24.8 °C20.3 °C76 %1013.9 hPa16.1 kmNE (50°)29.6 km/hScattered Clouds
6:55 AM24.7 °C20.5 °C77 %1014.6 hPa16.1 kmNE (50°)27.8 km/hClear
7:23 AM25 °C21 °C78 %1014.6 hPa16.1 kmNE (50°)29.6 km/hMostly Cloudy
7:26 AM25 °C21 °C78 %1014.6 hPa16.1 kmNE (50°)27.8 km/hScattered Clouds
7:55 AM25.5 °C21.3 °C77 %1014.9 hPa16.1 kmENE (60°)29.6 km/h38.9 km/hScattered Clouds
8:53 AM25 °C22 °C83 %1015.2 hPa16.1 kmENE (60°)29.6 km/h42.6 km/hRainLight Rain
8:55 AM25.1 °C21.9 °C82 %1015.2 hPa14.5 kmENE (60°)33.3 km/h42.6 km/h0 mmRainLight Rain
8:57 AM25 °C22 °C83 %1015.2 hPa11.3 kmENE (70°)31.5 km/h42.6 km/hRainLight Rain
9:04 AM24 °C22 °C89 %1015.2 hPa4.8 kmENE (60°)31.5 km/hRainLight Rain
9:05 AM24 °C22 °C89 %1015.2 hPa4 kmENE (60°)31.5 km/hRainLight Rain
9:09 AM24 °C22 °C89 %1015.2 hPa4.8 kmENE (60°)27.8 km/hRainLight Rain
9:31 AM26 °C22 °C78 %1015.2 hPa16.1 kmENE (60°)27.8 km/hLight Drizzle
9:33 AM26 °C22 °C78 %1015.2 hPa16.1 kmENE (60°)31.5 km/h38.9 km/hScattered Clouds
9:55 AM26 °C22.1 °C79 %1014.9 hPa16.1 kmENE (60°)29.6 km/h1.52 mmClear
10:55 AM27.6 °C22 °C71 %1014.6 hPa16.1 kmNE (50°)33.3 km/hScattered Clouds
11:51 AM27 °C21 °C70 %1013.9 hPa16.1 kmENE (60°)29.6 km/h40.7 km/hMostly Cloudy
11:55 AM27.5 °C21.3 °C69 %1013.9 hPa16.1 kmNE (50°)33.3 km/hMostly Cloudy
12:24 PM28 °C22 °C70 %1013.9 hPa16.1 kmENE (60°)29.6 km/hScattered Clouds
12:28 PM28 °C22 °C70 %1013.5 hPa16.1 kmENE (60°)33.3 km/hMostly Cloudy
12:30 PM28 °C22 °C70 %1013.5 hPa16.1 kmENE (60°)31.5 km/hScattered Clouds
12:55 PM28.4 °C21.7 °C67 %1013.2 hPa16.1 kmENE (70°)25.9 km/h40.7 km/hScattered Clouds
1:55 PM28 °C21.5 °C68 %1013.2 hPa16.1 kmENE (60°)29.6 km/hScattered Clouds
2:55 PM28.3 °C21.8 °C68 %1012.5 hPa16.1 kmENE (60°)29.6 km/hScattered Clouds
3:55 PM27.1 °C21.7 °C72 %1012.5 hPa16.1 kmENE (60°)29.6 km/hScattered Clouds
4:13 PM27 °C22 °C74 %1012.9 hPa16.1 kmENE (60°)27.8 km/hMostly Cloudy
4:17 PM27 °C22 °C74 %1012.9 hPa16.1 kmENE (60°)27.8 km/hMostly Cloudy
4:18 PM27 °C22 °C74 %1012.9 hPa16.1 kmENE (60°)27.8 km/hMostly Cloudy
4:21 PM27 °C22 °C74 %1012.9 hPa16.1 kmENE (60°)29.6 km/hMostly Cloudy
4:51 PM26 °C21 °C74 %1012.9 hPa16.1 kmENE (70°)29.6 km/h38.9 km/hMostly Cloudy
4:53 PM26 °C21 °C74 %1012.9 hPa16.1 kmENE (60°)24.1 km/h38.9 km/hScattered Clouds
4:55 PM26.2 °C21.3 °C74 %1012.9 hPa16.1 kmENE (60°)27.8 km/hScattered Clouds
5:55 PM25.6 °C21.3 °C77 %1013.2 hPa16.1 kmENE (60°)29.6 km/hScattered Clouds
6:45 PM25 °C22 °C83 %1013.9 hPa16.1 kmENE (70°)24.1 km/hMostly Cloudy
6:55 PM25.4 °C21.5 °C79 %1013.9 hPa16.1 kmENE (60°)24.1 km/hOvercast
7:14 PM25 °C21 °C78 %1013.9 hPa16.1 kmENE (60°)27.8 km/hMostly Cloudy
7:55 PM25.1 °C21.1 °C78 %1014.2 hPa16.1 kmENE (60°)25.9 km/hPartly Cloudy
8:55 PM25.2 °C21.6 °C80 %1014.9 hPa16.1 kmENE (60°)27.8 km/hScattered Clouds
9:55 PM25 °C21.5 °C81 %1015.2 hPa16.1 kmNE (50°)31.5 km/hScattered Clouds
10:40 PM25 °C21 °C78 %1014.9 hPa16.1 kmENE (60°)27.8 km/hMostly Cloudy
10:45 PM25 °C21 °C78 %1014.9 hPa16.1 kmENE (70°)27.8 km/hMostly Cloudy
10:55 PM24.8 °C21.1 °C80 %1014.9 hPa16.1 kmENE (60°)25.9 km/hScattered Clouds
11:31 PM25 °C21 °C78 %1014.9 hPa16.1 kmENE (60°)25.9 km/hMostly Cloudy
11:43 PM25 °C21 °C78 %1014.9 hPa16.1 kmENE (60°)27.8 km/hMostly Cloudy
11:55 PM25 °C21.3 °C80 %1014.6 hPa16.1 kmENE (60°)25.9 km/hOvercast
Hourly data recorded from PGUA, located 0 kilometers away from Merizo, Guam







STORIES FROM OUR PARTNERS